| Temperature (°F) | Max | Average | Min |
|---|---|---|---|
| Max Temperature | 84 | 72.78 | 43 |
| Avg Temperature | 71.49 | 60.63 | 33.21 |
| Min Temperature | 64 | 50.34 | 25 |
| Precipitation (in) | Max | Average | Min | Sum |
|---|---|---|---|---|
| Precipitation | 0.32 | 0.04 | 0 | 1.24 |
| Dew Point (°F) | Max | Average | Min |
|---|---|---|---|
| Dew Point | 64.92 | 48.04 | 13.99 |
| Wind (mph) | Max | Average | Min |
|---|---|---|---|
| Wind | 29 | 16.31 | 9 |
| Gust Wind | 49 | 19.44 | 12 |
| Sea Level Pressure (in) | Max | Average | Min |
|---|---|---|---|
| Sea Level Pressure | 29.35 | 29.1 | 28.75 |
| Date | Temp High/Low | Dew Pt High/Low | Humidity | Wind | Max Wind | Wind Gust | Pressure | Precip. | Condition |
|---|---|---|---|---|---|---|---|---|---|
| 3/1/2026 | 77 °F / 41 °F | 48 °F / 32 °F | 58 % | 9 mph | - | 29.13 in | 0.06 in | ||
| 3/2/2026 | 73 °F / 54 °F | 50 °F / 41 °F | 52 % | 13 mph | - | 29.15 in | 0.09 in | ||
| 3/3/2026 | 70 °F / 52 °F | 57 °F / 46 °F | 76 % | 15 mph | - | 29.19 in | 0.03 in | ||
| 3/4/2026 | 77 °F / 55 °F | 59 °F / 55 °F | 76 % | 15 mph | - | 29.18 in | 0.02 in | ||
| 3/5/2026 | 79 °F / 57 °F | 61 °F / 54 °F | 71 % | 22 mph | - | 29.11 in | 0 in | ||
| 3/6/2026 | 77 °F / 57 °F | 64 °F / 55 °F | 81 % | 17 mph | - | 29.13 in | 0 in | ||
| 3/7/2026 | 79 °F / 59 °F | 66 °F / 59 °F | 89 % | 23 mph | - | 29.08 in | 0.45 in | ||
| 3/8/2026 | 61 °F / 59 °F | 61 °F / 59 °F | 100 % | 13 mph | - | 29.01 in | 0.02 in | ||
| 3/9/2026 | 72 °F / 55 °F | 68 °F / 55 °F | 96 % | 16 mph | - | 29.07 in | 0.06 in | ||
| 3/10/2026 | 77 °F / 61 °F | 70 °F / 61 °F | 90 % | 16 mph | - | 29.07 in | 0.22 in | ||
| 3/11/2026 | 81 °F / 61 °F | 68 °F / 61 °F | 84 % | 21 mph | - | 28.97 in | 0.07 in | ||
| 3/12/2026 | 61 °F / 36 °F | 61 °F / 21 °F | 73 % | 17 mph | - | 29.12 in | 0.03 in | ||
| 3/13/2026 | 68 °F / 34 °F | 39 °F / 27 °F | 55 % | 17 mph | - | 29.07 in | 0.05 in | ||
| 3/14/2026 | 77 °F / 41 °F | 46 °F / 37 °F | 56 % | 12 mph | - | 29.03 in | 0.06 in | ||
| 3/15/2026 | 75 °F / 57 °F | 61 °F / 43 °F | 64 % | 29 mph | - | 28.8 in | 0.02 in | ||
| 3/16/2026 | 70 °F / 30 °F | 61 °F / 19 °F | 75 % | 18 mph | - | 28.87 in | 0.02 in | ||
| 3/17/2026 | 43 °F / 25 °F | 25 °F / 7 °F | 49 % | 12 mph | - | 29.18 in | 0.01 in | ||
| 3/18/2026 | 59 °F / 28 °F | 28 °F / 16 °F | 46 % | 13 mph | - | 29.21 in | 0.01 in | ||
| 3/19/2026 | 72 °F / 39 °F | 45 °F / 28 °F | 53 % | 12 mph | - | 29.16 in | 0 in | ||
| 3/20/2026 | 79 °F / 46 °F | 52 °F / 43 °F | 62 % | 17 mph | - | 29.08 in | 0.01 in | ||
| 3/21/2026 | 82 °F / 55 °F | 59 °F / 50 °F | 65 % | 14 mph | - | 28.97 in | 0 in | ||
| 3/22/2026 | 84 °F / 59 °F | 63 °F / 52 °F | 64 % | 18 mph | - | 28.91 in | 0 in | ||
| 3/23/2026 | 72 °F / 48 °F | 57 °F / 32 °F | 60 % | 21 mph | - | 29.06 in | 0 in | ||
| 3/24/2026 | 70 °F / 45 °F | 41 °F / 27 °F | 35 % | 10 mph | - | 29.16 in | 0 in | ||
| 3/25/2026 | 73 °F / 55 °F | 55 °F / 32 °F | 59 % | 14 mph | - | 29.14 in | 0 in | ||
| 3/26/2026 | 79 °F / 59 °F | 61 °F / 54 °F | 68 % | 17 mph | - | 29.07 in | 0 in | ||
| 3/27/2026 | 77 °F / 50 °F | 64 °F / 43 °F | 82 % | 21 mph | - | 29.11 in | 0.01 in | ||
| 3/28/2026 | 64 °F / 39 °F | 43 °F / 12 °F | 46 % | 18 mph | - | 29.37 in | 0 in | ||
| 3/29/2026 | 70 °F / 48 °F | 52 °F / 25 °F | 49 % | 15 mph | - | 29.32 in | 0 in | ||
| 3/30/2026 | 75 °F / 57 °F | 59 °F / 52 °F | 72 % | 16 mph | - | 29.24 in | 0 in | ||
| 3/31/2026 | 77 °F / 61 °F | 63 °F / 59 °F | 81 % | 20 mph | - | 29.16 in | 0 in |